Weather in Kuzemyn

Ukraine / Sumi District     50°08′55″N   34°38′47″E
temp.,
°C
wind,
m/s
gust,
m/s
humid.,
%
clouds,
%
prec.,
mm/h
press.,
hPa
HPBL,
m
27 october, wed
wed2700:00+2ssw49529 0.0 1029146
03:00+1ssw48505 0.0 1029133
06:000ssw410534 0.0 1027170
09:00+3ssw512590 0.0 1027306
12:00+9sw69520 0.0 1026757
15:00+10wsw685856 0.0 10241114
18:00+9wsw476187 0.0 1024282
21:00+7w3576100 0.0 1024118
28 october, thu
thu2800:00+6wnw347547 0.0 102468
03:00+4w2280100 0.0 102431
06:00+4wsw3585100 0.0 102378
09:00+7wsw41078100 0.0 1023274
12:00+9sw61270100 0.1 1022518
15:00+12w51068100 0.1 1020743
18:00+10wnw498299 0.1 1021492
21:00+9nw498597 0.1 1022404
29 october, fri
fri2900:00+9nw359016 0.0 1023156
03:00+6nnw35962 0.0 102589
06:00+5n34945 0.0 102659
09:00+6nne36805 0.0 1028192
12:00+11ene35590 0.0 1028719
15:00+12ene34573 0.0 10281006
18:00+8ene22740 0.0 102917
21:00+6ese35850 0.0 103183
30 october, sat
sat3000:00+5ese33900 0.0 103142
03:00+4se33920 0.0 103233
06:00+4se22930 0.0 103230
09:00+6se24860 0.0 1033127
12:00+11sse34590 0.0 1033627
15:00+13sse34490 0.0 1032978
18:00+9se22620 0.0 103216
21:00+7se22690 0.0 103219
31 october, sun
sun3100:00+5se22730 0.0 103219
03:00+4se22790 0.0 103214
05:00+4ese22860 0.0 103221
08:00+6ese25800 0.0 1031139
11:00+12se56540 0.0 1030676
14:00+13ese45440 0.0 1028880
17:00+8e45630 0.0 102766
20:00+7ese38720 0.0 1027138